Miscellaneous Local Product
Issued by NWS Hastings, NE

Home | Current Version | Previous Version | Text Only | Print | Product List | Glossary On
Versions: 1 2 3 4 5 6 7 8 9 10 11 12 13 14 15 16 17 18 19 20 21 22 23 24 25 26 27 28 29 30 31 32 33 34 35 36 37 38 39 40 41 42 43 44 45 46 47 48 49 50
000
AXUS43 KGID 151602
MISGRI

GID CWA HOURLY WEATHER ROUNDUP
NATIONAL WEATHER SERVICE HASTINGS NE
1000 AM CST FRI DEC 15 2017

NOTE: "FAIR" INDICATES FEW OR NO CLOUDS BELOW 12,000 FEET WITH NO
SIGNIFICANT WEATHER AND/OR OBSTRUCTIONS TO VISIBILITY.

...SOUTH CENTRAL NEBRASKA...

CITY           SKY/WX    TMP DP  RH WIND       PRES   REMARKS
GRAND ISLAND   CLOUDY    30  23  75 SW18      30.02F WCI  18
KEARNEY        SUNNY     28  20  71 SW13      30.02R WCI  17
HASTINGS       SUNNY     28  21  75 SW13      30.04R WCI  17
ORD            SUNNY     29  23  78 CALM      29.96S
YORK           CLOUDY    28  28 100 SW10      30.03F WCI  19
AURORA         MOSUNNY   30  24  79 SW15      30.02S WCI  19
LEXINGTON      SUNNY     30  22  72 W7        30.01S WCI  23
HOLDREGE       SUNNY     28  22  78 W13       30.03R WCI  17
HEBRON         SUNNY     32  27  83 SW9       30.09S WCI  24

...NEBRASKA PANHANDLE...

CITY           SKY/WX    TMP DP  RH WIND       PRES   REMARKS
CHADRON        CLOUDY    31  19  61 CALM      29.92S
ALLIANCE       SUNNY     37  22  54 W15       29.92S WCI  28
SCOTTSBLUFF    CLOUDY    29  22  75 CALM      29.96S
SIDNEY         SUNNY     38  15  39 W21G26    29.97S WCI  28

...WESTERN AND NORTH CENTRAL NEBRASKA...

CITY           SKY/WX    TMP DP  RH WIND       PRES   REMARKS
VALENTINE      HAZE      31  21  66 W13       29.89F VSB 3/4 WCI  21
AINSWORTH      SUNNY     29  23  78 W10       29.88F WCI  20
ONEILL         CLOUDY    29  25  83 SW7       29.91F WCI  22
BROKEN BOW     SUNNY     30  22  72 W10       29.95F WCI  21
IMPERIAL       SUNNY     29  19  66 W14       30.00F WCI  18
NORTH PLATTE   SUNNY     27  20  75 W8        29.99F WCI  19
MCCOOK         SUNNY     26  19  74 W10       30.04S WCI  16

...EASTERN NEBRASKA...

CITY           SKY/WX    TMP DP  RH WIND       PRES   REMARKS
NORFOLK        CLOUDY    31  24  75 SW12      29.94R WCI  22
SO SIOUX CITY  CLOUDY    36  25  64 W8        29.97S WCI  30
TEKAMAH        CLOUDY    35  24  64 SW14      30.01S WCI  26
COLUMBUS       CLOUDY    33  25  72 SW13      30.00F WCI  24
ALBION         MOSUNNY   30  24  79 W5        29.97F WCI  25
OMAHA EPPLEY   PTSUNNY   38  24  57 SW9       30.03  WCI  31
OFFUTT AFB     PTSUNNY   37  23  58 SW9       30.04S WCI  30
MILLARD        MOSUNNY   37  25  64 SW8       30.04S WCI  30
LINCOLN        SUNNY     36  25  64 SW8G18    30.06F WCI  30
NEBRASKA CITY  CLOUDY    35  26  69 W14       30.08S WCI  26
BEATRICE       SUNNY     35  26  70 SW12      30.08F WCI  27
FALLS CITY     SUNNY     37  24  59 W12       30.11F WCI  29

...NORTHERN KANSAS...

CITY           SKY/WX    TMP DP  RH WIND       PRES   REMARKS
GOODLAND       SUNNY     35  21  56 SW13      30.04R WCI  26
HILL CITY      SUNNY     30  22  72 W9        30.08F WCI  22
NORTON         SUNNY     30  18  59 SW10      30.04S WCI  21
PHILLIPSBURG   SUNNY     30  21  69 SW7       30.08S WCI  23
SMITH CENTER   SUNNY     25  21  86 SW7       30.09F WCI  17
HAYS           SUNNY     28  21  75 MISG      30.12F
RUSSELL        SUNNY     28  23  81 SW13      30.11F WCI  17
CONCORDIA      SUNNY     32  28  85 SW10      30.12R WCI  24
SALINA         SUNNY     36  28  73 SW10      30.17R WCI  28
TOPEKA         SUNNY     37  29  72 W13       30.17R WCI  29



USA.gov is the U.S. government's official web portal to all federal, state and local government web resources and services.